Date String (YYYY-MM-DD hh:mm:ss) UTC,Instrument flags,Ambient pressure (hPa),Sample flow (lpm),Bypass flow (lpm),Sample temperature (°C),Ambient temperature (°C),ASC tube jacket temperature (°C),LED temperature (°C),Box temperature (°C),Sample RH (%),Span deviation,Mass concentration (μg/m³),Mass concentration (μg/m³),Mass concentration (μg/m³)
DateTimeUTC,F1_M11,P_M11,Q1_M11,Q2_M11,T1_M11,T2_M11,T3_M11,T4_M11,T5_M11,U1_M11,ZSPAN_M11,X2_M11,X0_M11,X1_M11
2022-10-22 02:00:00,,0816.4,5.01,0.00,29.7,28.1,00.0,38.5,31.5,06.5,0000.0,0002.67,0005.93,0002.08
2022-10-22 02:01:00,,0816.3,5.00,0.00,29.7,28.2,00.0,38.5,31.5,06.5,0000.0,0002.64,0005.93,0002.09
2022-10-22 02:02:00,,0816.3,5.00,0.00,29.7,28.2,00.0,38.5,31.6,06.5,0000.0,0002.64,0006.00,0002.09
2022-10-22 02:03:00,,0816.3,4.99,0.00,29.7,28.2,00.0,38.5,31.6,06.5,0000.0,0002.65,0006.28,0002.10
2022-10-22 02:04:00,,0816.3,4.99,0.00,29.7,28.2,00.0,38.5,31.6,06.6,0000.0,0002.65,0006.33,0002.11
2022-10-22 02:05:00,,0816.2,5.00,0.00,29.7,28.3,00.0,38.6,31.6,06.6,0000.0,0002.65,0006.20,0002.11
2022-10-22 02:06:00,,0816.0,5.00,0.00,29.7,28.3,00.0,38.6,31.6,06.5,0000.0,0002.69,0005.40,0002.13
2022-10-22 02:07:00,,0816.1,5.00,0.00,29.7,28.3,00.0,38.6,31.6,06.5,0000.0,0002.71,0005.09,0002.13
2022-10-22 02:08:00,,0816.1,5.00,0.00,29.7,28.3,00.0,38.6,31.6,06.5,0000.0,0002.70,0005.37,0002.14
2022-10-22 02:09:00,,0816.1,5.00,0.00,29.8,28.3,00.0,38.6,31.6,06.5,0000.0,0002.73,0005.01,0002.16
2022-10-22 02:10:00,,0816.1,5.01,0.00,29.8,28.3,00.0,38.6,31.6,06.5,0000.0,0002.73,0005.13,0002.17
2022-10-22 02:11:00,,0816.2,5.00,0.00,29.8,28.3,00.0,38.6,31.6,06.5,0000.0,0002.68,0005.05,0002.17
2022-10-22 02:12:00,,0816.1,5.00,0.00,29.8,28.3,00.0,38.6,31.6,06.5,0000.0,0002.68,0005.16,0002.17
2022-10-22 02:13:00,,0816.1,5.01,0.00,29.8,28.3,00.0,38.6,31.6,06.5,0000.0,0002.77,0005.34,0002.19
2022-10-22 02:14:00,,0816.1,5.00,0.00,29.8,28.4,00.0,38.6,31.7,06.5,0000.0,0002.81,0005.12,0002.21
2022-10-22 02:15:00,,0816.0,5.00,0.00,29.8,28.4,00.0,38.6,31.7,06.5,0000.0,0002.80,0005.26,0002.20
2022-10-22 02:16:00,,0816.0,5.00,0.00,29.8,28.4,00.0,38.7,31.7,06.5,0000.0,0002.81,0005.89,0002.21
2022-10-22 02:17:00,,0816.1,5.00,0.00,29.8,28.4,00.0,38.7,31.7,06.5,0000.0,0002.78,0006.05,0002.20
2022-10-22 02:18:00,,0816.2,5.00,0.00,29.8,28.4,00.0,38.7,31.6,06.5,0000.0,0002.78,0005.98,0002.20
2022-10-22 02:19:00,,0816.2,5.00,0.00,29.8,28.4,00.0,38.7,31.7,06.5,0000.0,0002.79,0006.03,0002.21
2022-10-22 02:20:00,,0816.2,5.00,0.00,29.9,28.4,00.0,38.7,31.7,06.5,0000.0,0002.77,0007.08,0002.20
2022-10-22 02:21:00,,0816.2,5.00,0.00,29.9,28.4,00.0,38.7,31.7,06.5,0000.0,0002.77,0006.92,0002.20
2022-10-22 02:22:00,,0816.2,4.99,0.00,29.9,28.5,00.0,38.7,31.7,06.5,0000.0,0002.81,0007.40,0002.21
2022-10-22 02:23:00,,0816.2,5.00,0.00,29.9,28.5,00.0,38.7,31.7,06.5,0000.0,0002.83,0007.69,0002.21
2022-10-22 02:24:00,,0816.3,5.01,0.00,29.9,28.5,00.0,38.7,31.7,06.5,0000.0,0002.81,0007.79,0002.20
2022-10-22 02:25:00,,0816.3,5.00,0.00,29.9,28.5,00.0,38.7,31.7,06.4,0000.0,0002.79,0007.81,0002.18
2022-10-22 02:26:00,,0816.3,5.00,0.00,29.9,28.5,00.0,38.7,31.8,06.4,0000.0,0002.76,0007.71,0002.18
2022-10-22 02:27:00,,0816.2,5.00,0.00,29.9,28.5,00.0,38.8,31.8,06.4,0000.0,0002.74,0007.30,0002.18
2022-10-22 02:28:00,,0816.2,5.00,0.00,29.9,28.6,00.0,38.8,31.8,06.5,0000.0,0002.75,0007.20,0002.18
2022-10-22 02:29:00,,0816.1,5.01,0.00,30.0,28.6,00.0,38.8,31.8,06.5,0000.0,0002.82,0007.32,0002.19
2022-10-22 02:30:00,,0816.1,5.01,0.00,30.0,28.6,00.0,38.8,31.8,06.5,0000.0,0002.87,0007.15,0002.19
2022-10-22 02:31:00,,0816.1,5.00,0.00,30.0,28.5,00.0,38.8,31.8,06.5,0000.0,0002.93,0006.07,0002.22
2022-10-22 02:32:00,,0816.2,5.00,0.00,30.0,28.5,00.0,38.8,31.8,06.5,0000.0,0002.95,0006.19,0002.23
2022-10-22 02:33:00,,0816.2,5.00,0.00,30.0,28.5,00.0,38.8,31.8,06.5,0000.0,0002.96,0005.81,0002.25
2022-10-22 02:34:00,,0816.2,4.99,0.00,30.0,28.6,00.0,38.8,31.8,06.6,0000.0,0003.00,0005.17,0002.27
2022-10-22 02:35:00,,0816.3,5.00,0.00,30.0,28.6,00.0,38.8,31.8,06.6,0000.0,0003.00,0004.76,0002.29
2022-10-22 02:36:00,,0816.3,4.99,0.00,30.0,28.5,00.0,38.8,31.8,06.5,0000.0,0003.03,0004.80,0002.33
2022-10-22 02:37:00,,0816.3,5.01,0.00,30.0,27.3,00.0,38.8,31.7,06.6,0000.0,0003.12,0004.92,0002.36
2022-10-22 02:38:00,,0816.3,5.01,0.00,30.0,26.3,00.0,38.7,31.6,06.6,0000.0,0003.15,0005.14,0002.38
2022-10-22 02:39:00,,0816.2,5.01,0.00,29.9,26.3,00.0,38.7,31.5,06.6,0000.0,0003.15,0005.57,0002.40
2022-10-22 02:40:00,,0816.3,4.99,0.00,29.8,26.6,00.0,38.7,31.4,06.7,0000.0,0003.14,0006.60,0002.42
2022-10-22 02:41:00,,0816.3,5.00,0.00,29.7,26.9,00.0,38.6,31.4,06.8,0000.0,0003.12,0006.50,0002.44
2022-10-22 02:42:00,,0816.3,5.00,0.00,29.7,27.2,00.0,38.6,31.4,06.8,0000.0,0003.09,0006.40,0002.44
2022-10-22 02:43:00,,0816.2,4.99,0.00,29.7,27.4,00.0,38.6,31.4,06.8,0000.0,0003.10,0006.37,0002.45
2022-10-22 02:44:00,,0816.2,5.00,0.00,29.7,27.6,00.0,38.6,31.4,06.8,0000.0,0003.14,0006.78,0002.45
2022-10-22 02:45:00,,0816.1,5.00,0.00,29.7,27.7,00.0,38.6,31.4,06.9,0000.0,0003.15,0007.06,0002.48
2022-10-22 02:46:00,,0816.1,5.01,0.00,29.6,27.8,00.0,38.6,31.4,06.9,0000.0,0003.18,0007.14,0002.52
2022-10-22 02:47:00,,0816.1,4.99,0.00,29.6,27.9,00.0,38.6,31.4,06.9,0000.0,0003.20,0007.25,0002.56
2022-10-22 02:48:00,,0816.1,5.00,0.00,29.6,27.9,00.0,38.6,31.4,07.0,0000.0,0003.19,0007.29,0002.60
2022-10-22 02:49:00,,0816.1,5.00,0.00,29.7,28.0,00.0,38.6,31.4,07.0,0000.0,0003.20,0007.18,0002.64
2022-10-22 02:50:00,,0816.0,5.00,0.00,29.7,28.1,00.0,38.6,31.5,07.0,0000.0,0003.23,0006.75,0002.69
2022-10-22 02:51:00,,0816.0,4.99,0.00,29.7,28.1,00.0,38.5,31.4,07.0,0000.0,0003.24,0005.63,0002.72
2022-10-22 02:52:00,,0816.0,5.00,0.00,29.7,28.1,00.0,38.6,31.4,06.9,0000.0,0003.28,0005.62,0002.76
2022-10-22 02:53:00,,0815.9,5.00,0.00,29.7,28.1,00.0,38.6,31.5,06.9,0000.0,0003.33,0005.78,0002.80
2022-10-22 02:54:00,,0816.0,5.00,0.00,29.7,28.2,00.0,38.6,31.5,06.9,0000.0,0003.33,0005.71,0002.84
2022-10-22 02:55:00,,0816.0,4.99,0.00,29.7,28.2,00.0,38.6,31.5,07.0,0000.0,0003.33,0005.28,0002.89
2022-10-22 02:56:00,,0816.0,5.00,0.00,29.7,28.2,00.0,38.6,31.5,06.9,0000.0,0003.34,0005.08,0002.93
2022-10-22 02:57:00,,0816.0,5.01,0.00,29.7,28.2,00.0,38.6,31.5,06.9,0000.0,0003.35,0005.15,0002.93
2022-10-22 02:58:00,,0816.0,5.00,0.00,29.7,28.2,00.0,38.6,31.5,06.9,0000.0,0003.35,0005.06,0002.93
2022-10-22 02:59:00,,0816.0,4.99,0.00,29.7,28.2,00.0,38.6,31.5,06.9,0000.0,0003.36,0005.05,0002.94
